13:56
Airports
History
Links
Donate
Help keep this website running!
PayPal
Bitcoin
Information on this page is community maintained and may be outdated or inaccurate and is intended for reference only or PC simulator navigating.
Always use approved charts for navigating.
SIME
Comandante Carlos Inacio Agnes
Comandante Carlos Inacio Agnes (SIME)
Imperatriz, Maranhão, Brazil (65928)
4
Lat/Lng:5° 34' 36" S / 47° 25' 22" W
-5.576667 / -47.422778
Elevation:443'ft 135mMSL
ID / ICAO:SIME
Runways:1
Longest:(09-27) 1,046.1m 3,432ft Gravel
Distance To
Airport ID:
Nearby WeatherUpdated 06-23-17 12:00 GMT
Nearby weather at SBIZ, Prefeito Renato Moreira located 4.0 nautical miles from SIME
Altimeter: 29.94
Visibility: 6.2 statute miles
Wind: 5 knots (140°)
Temp: 28°c 82°f
Humidity: 58.1%

METAR: SBIZ 231200Z 14005KT CAVOK 28/19 Q1014

(Powered by phpweather)
Runway 09 / 27
Dimensions:1046.1 x 20.1m 3432' x 66'ft
Surface:Gravel
Runway 09 [A]Runway 27 [B]
Heading:069°TH 249°TH
Lat:
Lng:
5° 34' 42.03"S
47° 25' 37.99"W
5° 34' 29.97"S
47° 25' 6.01"W
User Notes and Comments
Google Map
Nearby Airports
(U) Prefeito Renato Moreira 4.0 NM
SBIZ (WX) NW 320°
4 Haras Bela Vista 6.0 NM
SJVY WNW 293°
4 Fazenda Agua Boa 26.6 NM
SNJC S 175°
4 Frisama Acailandia 43.7 NM
SJHX N 356°
(C) Araguatins 46.6 NM
SWAI W 267°
(U) ARAGUATINS 48.2 NM
SJGU W 261°
(U) Simasa 48.9 NM
SJOJ N
VFR Chart
Flight Planning at SkyVector.com